Whiting Fld NAS, FL

8:46 PM CST on November 20, 2019 (GMT -0600)
Whiting Field Naval Air Station (North)

Weather History for KNSE - September, 2019

Change the Weather History Date:

Saturday, September 7, 2019

  Actual Average Record
Temperature  
Mean Temperature 80 °F -  
Max Temperature 95 °F 86 °F 95 °F (2019)
Min Temperature 68 °F 68 °F 55 °F (2011)
Cooling Degree Days 16    
Growing Degree Days 30 (Base 50)    
Moisture  
Dew Point 71 °F    
Average Humidity 73    
Maximum Humidity 93    
Minimum Humidity 51    
Precipitation  
Precipitation 0.00 in - - ()
Sea Level Pressure  
Sea Level Pressure 29.92 in    
Wind  
Wind Speed 4 mph (NW)    
Max Wind Speed 7 mph    
Max Gust Speed -    
Visibility 10 miles    
Events      
Averages and records for this station are not official NWS values.
T = Trace of Precipitation, MM = Missing Value Source: NWS Daily Summary

Daily Weather History Graph

Daily Weather History Graph

Search for Another Location

Airport or City:

Astronomy

Sep. 07, 2019 Rise Set
Actual Time 6:27 AM CDT 7:03 PM CDT
Civil Twilight 6:03 AM CDT 7:28 PM CDT
Nautical Twilight 5:34 AM CDT 7:56 PM CDT
Astronomical Twilight 5:05 AM CDT 8:25 PM CDT
Moon 3:00 PM CDT (9/7) 12:37 AM CDT (9/7)
Length of Visible Light 13h 24m
Length of Day
12h 36m
Waxing Gibbous, 66% of the Moon is Illuminated
Sep 7
Waxing Gibbous
Sep 13
Full
Sep 21
Last Quarter
Sep 28
New
Oct 5
First Quarter

Hourly Weather History & Observations

Time (CDT) Temp. Heat Index Dew Point Humidity Pressure Visibility Wind Dir Wind Speed Gust Speed Precip Events Conditions
12:56 AM 68.0 °F - 64.9 °F 90% 29.92 in 10.0 mi NNW 3.5 mph - N/A   Clear
1:56 AM 69.1 °F - 66.0 °F 90% 29.91 in 10.0 mi North 3.5 mph - N/A   Clear
2:56 AM 68.0 °F - 66.0 °F 93% 29.91 in 10.0 mi North 3.5 mph - N/A   Clear
3:56 AM 70.0 °F - 66.0 °F 87% 29.90 in 10.0 mi NNW 3.5 mph - N/A   Clear
4:56 AM 68.0 °F - 66.0 °F 93% 29.91 in 10.0 mi NW 3.5 mph - N/A   Clear
5:56 AM 69.1 °F - 66.0 °F 90% 29.92 in 10.0 mi NNW 3.5 mph - N/A   Clear
6:56 AM 71.1 °F - 66.9 °F 87% 29.94 in 10.0 mi NNW 4.6 mph - N/A   Clear
7:56 AM 77.0 °F - 69.1 °F 76% 29.96 in 10.0 mi NNW 4.6 mph - N/A   Clear
8:56 AM 82.9 °F 87.0 °F 70.0 °F 65% 29.97 in 10.0 mi Calm Calm - N/A   Clear
9:56 AM 86.0 °F 93.0 °F 73.0 °F 65% 29.97 in 10.0 mi Variable 3.5 mph - N/A   Clear
10:56 AM 89.1 °F 98.0 °F 73.9 °F 61% 29.96 in 10.0 mi WNW 5.8 mph - N/A   Clear
11:56 AM 91.0 °F 100.4 °F 73.9 °F 57% 29.94 in 10.0 mi Variable 6.9 mph - N/A   Partly Cloudy
12:56 PM 93.0 °F 101.9 °F 73.0 °F 52% 29.93 in 10.0 mi Variable 4.6 mph - N/A   Partly Cloudy
1:56 PM 93.9 °F 103.4 °F 73.0 °F 51% 29.91 in 10.0 mi Variable 3.5 mph - N/A   Partly Cloudy
2:56 PM 93.9 °F 103.4 °F 73.0 °F 51% 29.88 in 10.0 mi North - - N/A   Scattered Clouds
3:56 PM 93.9 °F 103.4 °F 73.0 °F 51% 29.88 in 10.0 mi Variable 6.9 mph - N/A   Clear
4:56 PM 93.9 °F 103.4 °F 73.0 °F 51% 29.88 in 10.0 mi NNW 5.8 mph - N/A   Scattered Clouds
5:56 PM 91.9 °F 99.5 °F 72.0 °F 52% 29.88 in 10.0 mi Variable 3.5 mph - N/A   Clear
6:56 PM 84.0 °F 89.6 °F 72.0 °F 67% 29.88 in 10.0 mi Calm Calm - N/A   Clear
7:56 PM 79.0 °F - 73.9 °F 84% 29.89 in 10.0 mi Calm Calm - N/A   Clear
8:56 PM 78.1 °F - 73.0 °F 84% 29.90 in 10.0 mi Calm Calm - N/A   Clear
9:56 PM 75.9 °F - 73.0 °F 91% 29.91 in 10.0 mi Calm Calm - N/A   Clear
10:56 PM 78.1 °F - 73.9 °F 87% 29.92 in 10.0 mi WSW 4.6 mph - N/A   Clear
11:56 PM 79.0 °F - 75.0 °F 88% 29.91 in 10.0 mi NW 5.8 mph - N/A   Clear